Hourly Data Report for April 25, 2015

All times are specified in Local Standard Time (LST). Add 1 hour to adjust for Daylight Saving Time where and when it is observed.

Metadata including Station Name, Province, Latitude, Longitude, Elevation, Climate ID, WMO ID, TC ID
MONTREAL MIRABEL INTL A
QUEBEC
Latitude: 45°40'50.000" N Longitude: 74°02'19.000" W Elevation: 82.30 m
Climate ID: 7034900 WMO ID: TC ID: YMX
Hourly Data Report for April 25, 2015
Temp Definition
°C

Dew Point Temp Definition
°C

Rel Hum Definition
%

Wind Dir Definition
10's deg
Wind Spd Definition
km/h

Visibility Definition
km

Stn Press Definition
kPa

Hmdx Definition

Wind Chill Definition

Weather Definition

00:00 Legend Double Dagger 1.0 -5.3 63 28 10 40.2 100.09 LegendNANA
01:00 Legend Double Dagger 0.4 -5.0 67 29 10 40.2 100.08 Cloudy
02:00 Legend Double Dagger -0.1 -4.7 71 27 12 40.2 100.04 -4 LegendNANA
03:00 Legend Double Dagger -0.5 -4.9 72 28 11 40.2 100.04 -4 LegendNANA
04:00 Legend Double Dagger -0.9 -5.1 73 28 10 40.2 100.02 -4 Mainly Clear
05:00 Legend Double Dagger -0.3 -4.8 72 26 6 72.4 100.02 -2 LegendNANA
06:00 Legend Double Dagger 0.5 -4.5 69 27 12 72.4 100.02 LegendNANA
07:00 Legend Double Dagger 1.5 -4.4 65 28 11 72.4 100.01 Mostly Cloudy
08:00 Legend Double Dagger 2.6 -4.2 61 30 11 72.4 99.99 LegendNANA
09:00 Legend Double Dagger 5.6 -3.2 53 33 12 72.4 99.97 LegendNANA
10:00 Legend Double Dagger 7.2 -2.8 49 29 12 72.4 99.93 Mostly Cloudy
11:00 Legend Double Dagger 8.1 -2.2 48 29 13 72.4 99.89 LegendNANA
12:00 Legend Double Dagger 9.6 -1.7 45 33 13 72.4 99.86 LegendNANA
13:00 Legend Double Dagger 11.1 -1.3 42 30 8 72.4 99.83 Mostly Cloudy
14:00 Legend Double Dagger 10.9 -1.5 42 35 16 72.4 99.78 LegendNANA
15:00 Legend Double Dagger 11.0 -1.7 41 33 19 72.4 99.74 LegendNANA
16:00 Legend Double Dagger 11.3 -1.8 40 36 13 72.4 99.69 Mostly Cloudy
17:00 Legend Double Dagger 10.8 -1.2 43 1 10 72.4 99.70 LegendNANA
18:00 Legend Double Dagger 10.6 -1.8 42 36 17 72.4 99.70 LegendNANA
19:00 Legend Double Dagger 9.2 -1.8 46 35 11 72.4 99.73 Mostly Cloudy
20:00 Legend Double Dagger 8.8 -1.6 48 32 12 40.2 99.79 LegendNANA
21:00 Legend Double Dagger 7.9 -1.1 53 34 12 40.2 99.80 LegendNANA
22:00 Legend Double Dagger 7.1 -0.6 58 33 16 40.2 99.79 Cloudy
23:00 Legend Double Dagger 6.1 -0.2 64 35 15 40.2 99.80 LegendNANA

Notes on Data Quality.

Legend
  • E = Estimated
  • M = Missing
  • NA = Not Available
  • ‡ = Partner data that is not subject to review by the National Climate Archives